This demonstration page uses our WeatherBlox Daily Observations layout. Learn more.

Left ArrowRight Arrow

Hourly Observations for September 28, 2022

Temp ( °F °C ) Dew Point ( °F °C ) Humidity (%) Winds ( mph kmh ) Pressure ( in mb ) Visibility ( mi km ) Precip ( " mm )
12:53 am 00:53 Clear 44 6.7 39 3.9 82 82 NW 3 6 30.24 1024 10 16 0.00 0.00
1:53 am 01:53 Clear 42 5.6 39 3.9 89 89 Calm 30.25 1024 10 16 0.00 0.00
2:53 am 02:53 Clear 41 5 39 3.9 93 93 Calm 30.26 1025 10 16 0.00 0.00
3:53 am 03:53 Partly Cloudy 43 6.1 40 4.4 89 89 Calm 30.26 1025 10 16 0.00 0.00
4:18 am 04:18 Mostly Cloudy 42 5.6 40 4.4 92 92 Calm 30.27 1025 10 16 0.00 0.00
4:30 am 04:30 Partly Cloudy 42 5.6 39 3.9 89 89 Calm 30.28 1025 10 16 0.00 0.00
4:53 am 04:53 Clear 40 4.4 38 3.3 93 93 Calm 30.27 1025 10 16 0.00 0.00
5:53 am 05:53 Mostly Cloudy 40 4.4 38 3.3 93 93 Calm 30.28 1025 10 16 0.00 0.00
6:53 am 06:53 Partly Cloudy 42 5.6 40 4.4 92 92 Calm 30.29 1026 10 16 0.00 0.00
7:53 am 07:53 Mostly Cloudy 41 5 39 3.9 93 93 Calm 30.32 1027 10 16 0.00 0.00
8:53 am 08:53 Sunny 48 8.9 45 7.2 89 89 Calm 30.33 1027 10 16 0.00 0.00
9:53 am 09:53 Mostly Sunny 53 11.7 46 7.8 77 77 NNW 9 15 30.35 1028 10 16 0.00 0.00
10:53 am 10:53 Mostly Cloudy 55 12.8 45 7.2 69 69 N 9 15 30.37 1029 10 16 0.00 0.00
11:37 am 11:37 Cloudy 56 13.3 43 6.1 62 62 N 9 15 30.38 1029 10 16 0.00 0.00
11:44 am 11:44 Cloudy 56 13.3 44 6.7 64 64 NNW 9 15 30.39 1029 10 16 0.00 0.00
11:53 am 11:53 Cloudy 56 13.3 44 6.7 64 64 NNE 8 13 30.40 1029 10 16 0.00 0.00
12:35 pm 12:35 Cloudy 56 13.3 44 6.7 64 64 N 6 9 30.40 1029 10 16 0.00 0.00
12:45 pm 12:45 Cloudy 56 13.3 43 6.1 62 62 N 9 15 30.40 1029 10 16 0.00 0.00
12:53 pm 12:53 Cloudy 56 13.3 44 6.7 64 64 NNW 8 13 30.41 1030 10 16 0.00 0.00
1:53 pm 13:53 Cloudy 58 14.4 43 6.1 57 57 N 8 13 30.41 1030 10 16 0.00 0.00
2:53 pm 14:53 Cloudy 60 15.6 45 7.2 57 57 VRB 6 9 30.40 1029 10 16 0.00 0.00
3:53 pm 15:53 Cloudy 59 15 43 6.1 55 55 NNW 9 15 30.39 1029 10 16 0.00 0.00
4:53 pm 16:53 Mostly Cloudy 60 15.6 43 6.1 53 53 N 7 11 30.40 1029 10 16 0.00 0.00
5:53 pm 17:53 Cloudy 60 15.6 44 6.7 55 55 NE 7 11 30.40 1029 10 16 0.00 0.00
6:53 pm 18:53 Mostly Cloudy 58 14.4 43 6.1 57 57 NE 6 9 30.41 1030 10 16 0.00 0.00
7:53 pm 19:53 Cloudy 55 12.8 48 8.9 77 77 Calm 30.42 1030 10 16 0.01 0.13
8:53 pm 20:53 Cloudy 55 12.8 47 8.3 74 74 ENE 3 6 30.44 1031 10 16 0.00 0.00
9:53 pm 21:53 Cloudy 55 12.8 47 8.3 74 74 Calm 30.45 1031 10 16 0.00 0.00
10:53 pm 22:53 Cloudy 55 12.8 45 7.2 69 69 NNE 5 7 30.45 1031 10 16 0.00 0.00
11:53 pm 23:53 Clear 48 8.9 43 6.1 83 83 N 3 6 30.46 1032 10 16 0.00 0.00

Powered by AerisWeather